Oklahoma City, OK

7:23 PM CDT on May 22, 2018 (GMT -0500)
Will Rogers World

Weather History for KOKC - June, 2013

Change the Weather History Date:

Sunday, June 30, 2013

  Actual Average Record
Temperature  
Mean Temperature 78 °F 81 °F  
Max Temperature 88 °F 92 °F 102 °F (1925)
Min Temperature 67 °F 71 °F 58 °F (1923)
Degree Days  
Heating Degree Days 0 0  
Month to date heating degree days 0  
Since 1 June heating degree days 1  
Since 1 July heating degree days 3365  
Cooling Degree Days 13 16  
Month to date cooling degree days 406 390  
Year to date cooling degree days 579 640  
Since 1 June cooling degree days 390  
Growing Degree Days 27 (Base 50)    
Moisture  
Dew Point 54 °F    
Average Humidity 47    
Maximum Humidity 63    
Minimum Humidity 31    
Precipitation  
Precipitation 0.00 in 0.12 in 2.33 in (1981)
Month to date precipitation 4.81 4.93  
Year to date precipitation 31.85 18.68  
Sea Level Pressure  
Sea Level Pressure 29.94 in    
Wind  
Wind Speed 10 mph (NNE)    
Max Wind Speed 21 mph    
Max Gust Speed 26 mph    
Visibility 10 miles    
Events      
T = Trace of Precipitation, MM = Missing Value Source: NWS Daily Summary

Daily Weather History Graph

Daily Weather History Graph

Search for Another Location

Airport or City:

Astronomy

Jun. 30, 2013 Rise Set
Actual Time 6:18 AM CDT 8:49 PM CDT
Civil Twilight 5:48 AM CDT 9:19 PM CDT
Nautical Twilight 5:12 AM CDT 9:56 PM CDT
Astronomical Twilight 4:31 AM CDT 10:36 PM CDT
Moon 1:07 AM CDT (6/30) 2:14 PM CDT (6/30)
Length of Visible Light 15h 30m
Length of Day
14h 30m
Last Quarter, 45% of the Moon is Illuminated
Jun 30
Last Quarter
Jul 8
New
Jul 15
First Quarter
Jul 22
Full
Jul 29
Last Quarter

Hourly Weather History & Observations

Time (CDT) Temp. Heat Index Dew Point Humidity Pressure Visibility Wind Dir Wind Speed Gust Speed Precip Events Conditions
12:52 AM 79.0 °F - 55.0 °F 44% 29.89 in 10.0 mi NE 10.4 mph - N/A   Mostly Cloudy
1:52 AM 75.0 °F - 55.0 °F 50% 29.91 in 10.0 mi Calm Calm - N/A   Partly Cloudy
2:52 AM 75.0 °F - 54.0 °F 48% 29.90 in 10.0 mi NNE 5.8 mph - N/A   Partly Cloudy
3:52 AM 72.0 °F - 54.0 °F 53% 29.90 in 10.0 mi NNW 5.8 mph - N/A   Partly Cloudy
4:52 AM 70.0 °F - 55.9 °F 61% 29.91 in 10.0 mi North 6.9 mph - N/A   Partly Cloudy
5:52 AM 69.1 °F - 55.0 °F 61% 29.93 in 10.0 mi NW 9.2 mph - N/A   Partly Cloudy
6:52 AM 68.0 °F - 55.0 °F 63% 29.95 in 10.0 mi North 9.2 mph - N/A   Scattered Clouds
7:52 AM 71.1 °F - 54.0 °F 55% 29.97 in 10.0 mi NNW 10.4 mph - N/A   Scattered Clouds
8:52 AM 75.0 °F - 55.0 °F 50% 29.97 in 10.0 mi North 8.1 mph - N/A   Partly Cloudy
9:52 AM 78.1 °F - 55.0 °F 45% 29.98 in 10.0 mi North 8.1 mph - N/A   Partly Cloudy
10:52 AM 80.1 °F 80.0 °F 54.0 °F 40% 29.97 in 10.0 mi North 10.4 mph - N/A   Partly Cloudy
11:52 AM 82.9 °F 82.0 °F 55.0 °F 38% 29.96 in 10.0 mi NNE 12.7 mph 24.2 mph N/A   Scattered Clouds
12:52 PM 82.9 °F 81.9 °F 54.0 °F 37% 29.95 in 10.0 mi North 15.0 mph 20.7 mph N/A   Mostly Cloudy
1:52 PM 84.9 °F 83.6 °F 55.0 °F 36% 29.95 in 10.0 mi North 8.1 mph - N/A   Scattered Clouds
2:52 PM 87.1 °F 85.1 °F 54.0 °F 32% 29.93 in 10.0 mi North 15.0 mph 24.2 mph N/A   Scattered Clouds
3:52 PM 86.0 °F 84.0 °F 53.1 °F 32% 29.92 in 10.0 mi NNE 13.8 mph 25.3 mph N/A   Mostly Cloudy
4:52 PM 87.1 °F 84.9 °F 53.1 °F 31% 29.91 in 10.0 mi NE 16.1 mph 24.2 mph N/A   Mostly Cloudy
5:52 PM 82.9 °F 81.8 °F 53.1 °F 36% 29.92 in 10.0 mi NE 19.6 mph - N/A   Mostly Cloudy
6:52 PM 82.0 °F 81.2 °F 53.1 °F 37% 29.92 in 10.0 mi NE 11.5 mph - N/A   Mostly Cloudy
7:52 PM 80.1 °F - 51.1 °F 36% 29.93 in 10.0 mi NE 11.5 mph - N/A   Mostly Cloudy
8:52 PM 78.1 °F - 51.1 °F 39% 29.94 in 10.0 mi NE 10.4 mph - N/A   Scattered Clouds
9:52 PM 75.0 °F - 53.1 °F 46% 29.96 in 10.0 mi ENE 10.4 mph - N/A   Partly Cloudy
10:52 PM 73.0 °F - 52.0 °F 48% 29.98 in 10.0 mi NE 8.1 mph - N/A   Partly Cloudy
11:52 PM 73.0 °F - 52.0 °F 48% 30.00 in 10.0 mi NNE 5.8 mph - N/A   Partly Cloudy